| time (UTC) | temp F | wind direction | speed MPH | gust MPH | rain 1hr in | rain 24hr in | rain mn in | humidity % | barometer mb |
| 20260904200726 | 85 | 14 | 3.0 | 10.0 | 0.00 | 0.05 | 0.00 | 65 | 1011.5 |
| 20260904200450 | 85 | 253 | 3.0 | 9.0 | 0.00 | 0.05 | 0.00 | 66 | 1011.5 |
| 20260904195731 | 85 | 315 | 4.0 | 13.0 | 0.00 | 0.05 | 0.00 | 68 | 1011.6 |
| 20260904195227 | 85 | 306 | 3.0 | 13.0 | 0.00 | 0.05 | 0.00 | 66 | 1011.7 |
| 20260904194727 | 85 | 304 | 2.0 | 9.0 | 0.00 | 0.05 | 0.00 | 66 | 1011.9 |
| 20260904194712 | 85 | 331 | 2.0 | 9.0 | 0.00 | 0.05 | 0.00 | 68 | 1012.0 |
| 20260904193728 | 84 | 272 | 1.0 | 4.0 | 0.00 | 0.05 | 0.00 | 69 | 1012.0 |
| 20260904193226 | 84 | 329 | 2.0 | 9.0 | 0.00 | 0.05 | 0.00 | 69 | 1012.2 |
| 20260904192723 | 83 | 329 | 3.0 | 9.0 | 0.00 | 0.05 | 0.00 | 70 | 1012.2 |
| 20260904192224 | 84 | 325 | 3.0 | 7.0 | 0.00 | 0.05 | 0.00 | 71 | 1012.3 |
| 20260904191947 | 83 | 313 | 3.0 | 7.0 | 0.00 | 0.05 | 0.00 | 67 | 1012.5 |
| 20260904191224 | 84 | 325 | 3.0 | 5.0 | 0.00 | 0.05 | 0.00 | 68 | 1012.5 |
| 20260904190723 | 84 | 325 | 3.0 | 12.0 | 0.00 | 0.05 | 0.00 | 68 | 1012.5 |
| 20260904190216 | 84 | 267 | 4.0 | 12.0 | 0.00 | 0.05 | 0.00 | 66 | 1012.6 |
| 20260904185936 | 85 | 270 | 4.0 | 10.0 | 0.00 | 0.05 | 0.00 | 68 | 1012.7 |
| 20260904185203 | 84 | 317 | 4.0 | 12.0 | 0.00 | 0.05 | 0.00 | 67 | 1012.7 |
| 20260904184701 | 85 | 310 | 4.0 | 12.0 | 0.00 | 0.05 | 0.00 | 66 | 1012.7 |
| 20260904184200 | 85 | 269 | 4.0 | 10.0 | 0.00 | 0.05 | 0.00 | 66 | 1012.8 |
| 20260904183654 | 86 | 67 | 4.0 | 10.0 | 0.00 | 0.05 | 0.00 | 64 | 1012.8 |
| 20260904183152 | 86 | 278 | 3.0 | 9.0 | 0.00 | 0.05 | 0.00 | 68 | 1012.8 |
| 20260904182655 | 86 | 248 | 3.0 | 8.0 | 0.00 | 0.05 | 0.00 | 66 | 1012.8 |
| 20260904182154 | 85 | 328 | 3.0 | 7.0 | 0.00 | 0.05 | 0.00 | 65 | 1012.9 |
| 20260904181651 | 85 | 336 | 4.0 | 10.0 | 0.00 | 0.05 | 0.00 | 66 | 1012.9 |
| 20260904181414 | 85 | 0 | 4.0 | 10.0 | 0.00 | 0.05 | 0.00 | 72 | 1013.0 |
| 20260904180651 | 85 | 18 | 3.0 | 8.0 | 0.00 | 0.05 | 0.00 | 68 | 1012.9 |
| 20260904180155 | 85 | 247 | 3.0 | 8.0 | 0.00 | 0.05 | 0.00 | 69 | 1012.9 |
| 20260904175650 | 84 | 269 | 3.0 | 8.0 | 0.00 | 0.05 | 0.00 | 70 | 1012.9 |
| 20260904175150 | 83 | 217 | 2.0 | 7.0 | 0.00 | 0.05 | 0.00 | 71 | 1013.0 |
| 20260904174650 | 84 | 261 | 2.0 | 8.0 | 0.00 | 0.05 | 0.00 | 69 | 1013.0 |
| 20260904174150 | 84 | 253 | 3.0 | 11.0 | 0.00 | 0.05 | 0.00 | 72 | 1013.0 |
| 20260904173653 | 83 | 334 | 3.0 | 11.0 | 0.00 | 0.05 | 0.00 | 69 | 1013.1 |
| 20260904173152 | 83 | 331 | 4.0 | 9.0 | 0.00 | 0.05 | 0.00 | 72 | 1013.0 |
| 20260904172922 | 83 | 331 | 4.0 | 9.0 | 0.00 | 0.05 | 0.00 | 69 | 1013.0 |
| 20260904172148 | 84 | 5 | 4.0 | 11.0 | 0.00 | 0.05 | 0.00 | 68 | 1013.1 |
| 20260904171644 | 84 | 345 | 4.0 | 11.0 | 0.00 | 0.05 | 0.00 | 70 | 1013.2 |
| 20260904171142 | 83 | 304 | 3.0 | 9.0 | 0.00 | 0.05 | 0.00 | 69 | 1013.2 |
| 20260904170639 | 83 | 250 | 3.0 | 9.0 | 0.00 | 0.05 | 0.00 | 73 | 1013.3 |
| 20260904170140 | 83 | 338 | 3.0 | 8.0 | 0.00 | 0.05 | 0.00 | 71 | 1013.3 |
| 20260904165638 | 84 | 315 | 3.0 | 8.0 | 0.00 | 0.05 | 0.00 | 71 | 1013.2 |
| 20260904165403 | 84 | 322 | 3.0 | 10.0 | 0.00 | 0.05 | 0.00 | 70 | 1013.1 |
| 20260904164635 | 84 | 355 | 3.0 | 10.0 | 0.00 | 0.05 | 0.00 | 74 | 1013.2 |
| 20260904164616 | 83 | 248 | 2.0 | 9.0 | 0.00 | 0.05 | 0.00 | 72 | 1013.2 |
| 20260904163635 | 83 | 321 | 3.0 | 9.0 | 0.00 | 0.05 | 0.00 | 71 | 1013.3 |
| 20260904163400 | 82 | 333 | 3.0 | 9.0 | 0.00 | 0.05 | 0.00 | 72 | 1013.3 |
| 20260904162633 | 82 | 219 | 3.0 | 9.0 | 0.00 | 0.05 | 0.00 | 71 | 1013.3 |
| 20260904162131 | 83 | 246 | 3.0 | 7.0 | 0.00 | 0.05 | 0.00 | 70 | 1013.4 |
| 20260904161632 | 83 | 306 | 3.0 | 9.0 | 0.00 | 0.05 | 0.00 | 72 | 1013.4 |
| 20260904161136 | 82 | 263 | 5.0 | 11.0 | 0.00 | 0.05 | 0.00 | 71 | 1013.4 |
| 20260904160631 | 82 | 0 | 6.0 | 13.0 | 0.00 | 0.05 | 0.00 | 71 | 1013.3 |
| 20260904160354 | 82 | 20 | 6.0 | 13.0 | 0.00 | 0.05 | 0.00 | 72 | 1013.3 |
| 20260904155632 | 82 | 5 | 5.0 | 11.0 | 0.00 | 0.05 | 0.00 | 71 | 1013.4 |
| 20260904155134 | 82 | 355 | 5.0 | 12.0 | 0.00 | 0.05 | 0.00 | 71 | 1013.4 |
| 20260904154631 | 82 | 317 | 6.0 | 12.0 | 0.00 | 0.05 | 0.00 | 70 | 1013.5 |
| 20260904154128 | 82 | 349 | 4.0 | 12.0 | 0.00 | 0.05 | 0.00 | 73 | 1013.5 |
| 20260904153628 | 82 | 236 | 4.0 | 10.0 | 0.00 | 0.05 | 0.00 | 71 | 1013.6 |
| 20260904153349 | 82 | 355 | 5.0 | 10.0 | 0.00 | 0.05 | 0.00 | 71 | 1013.6 |
| 20260904152630 | 82 | 273 | 4.0 | 9.0 | 0.00 | 0.05 | 0.00 | 73 | 1013.5 |
| 20260904152411 | 82 | 338 | 5.0 | 15.0 | 0.00 | 0.05 | 0.00 | 71 | 1013.5 |
| 20260904151629 | 82 | 329 | 6.0 | 15.0 | 0.00 | 0.05 | 0.00 | 73 | 1013.6 |
| 20260904151142 | 82 | 340 | 4.0 | 13.0 | 0.00 | 0.05 | 0.00 | 73 | 1013.6 |
| 20260904150857 | 82 | 327 | 3.0 | 9.0 | 0.00 | 0.05 | 0.00 | 73 | 1013.4 |
| 20260904150128 | 81 | 315 | 4.0 | 11.0 | 0.00 | 0.05 | 0.00 | 73 | 1013.4 |
| 20260904145628 | 81 | 0 | 4.0 | 11.0 | 0.00 | 0.05 | 0.00 | 75 | 1013.5 |
| 20260904145339 | 81 | 240 | 4.0 | 11.0 | 0.00 | 0.05 | 0.00 | 74 | 1013.5 |
| 20260904144625 | 80 | 28 | 5.0 | 14.0 | 0.00 | 0.05 | 0.00 | 76 | 1013.4 |
| 20260904144125 | 80 | 343 | 6.0 | 14.0 | 0.00 | 0.05 | 0.00 | 75 | 1013.4 |
| 20260904143624 | 80 | 0 | 5.0 | 11.0 | 0.00 | 0.05 | 0.00 | 75 | 1013.5 |
| 20260904143123 | 80 | 319 | 4.0 | 10.0 | 0.00 | 0.05 | 0.00 | 76 | 1013.6 |
| 20260904142623 | 80 | 244 | 3.0 | 9.0 | 0.00 | 0.05 | 0.00 | 77 | 1013.5 |
| 20260904142123 | 80 | 270 | 2.0 | 9.0 | 0.00 | 0.05 | 0.00 | 77 | 1013.5 |
| 20260904141625 | 79 | 73 | 3.0 | 9.0 | 0.00 | 0.05 | 0.00 | 76 | 1013.5 |
| 20260904141122 | 79 | 74 | 2.0 | 9.0 | 0.00 | 0.05 | 0.00 | 78 | 1013.4 |
| 20260904140852 | 79 | 9 | 2.0 | 7.0 | 0.00 | 0.05 | 0.00 | 78 | 1013.3 |
| 20260904140342 | 79 | 9 | 3.0 | 11.0 | 0.00 | 0.05 | 0.00 | 79 | 1013.2 |
| 20260904135624 | 78 | 9 | 4.0 | 11.0 | 0.00 | 0.05 | 0.00 | 80 | 1013.2 |
| 20260904135124 | 78 | 336 | 6.0 | 15.0 | 0.00 | 0.05 | 0.00 | 80 | 1013.1 |
| 20260904134625 | 78 | 309 | 5.0 | 15.0 | 0.00 | 0.05 | 0.00 | 79 | 1013.1 |
| 20260904134359 | 78 | 350 | 3.0 | 10.0 | 0.00 | 0.05 | 0.00 | 81 | 1013.1 |
| 20260904133624 | 77 | 0 | 3.0 | 10.0 | 0.00 | 0.05 | 0.00 | 82 | 1013.1 |
| 20260904133354 | 77 | 355 | 2.0 | 8.0 | 0.00 | 0.05 | 0.00 | 81 | 1013.1 |
| 20260904132623 | 77 | 263 | 3.0 | 10.0 | 0.00 | 0.05 | 0.00 | 81 | 1013.2 |
| 20260904132339 | 77 | 302 | 3.0 | 10.0 | 0.00 | 0.05 | 0.00 | 83 | 1013.2 |
| 20260904131625 | 76 | 288 | 3.0 | 9.0 | 0.00 | 0.05 | 0.00 | 83 | 1013.2 |
| 20260904131123 | 76 | 322 | 2.0 | 9.0 | 0.00 | 0.05 | 0.00 | 83 | 1013.2 |
| 20260904130622 | 76 | 279 | 2.0 | 9.0 | 0.00 | 0.05 | 0.00 | 83 | 1013.2 |
| 20260904130123 | 76 | 334 | 2.0 | 9.0 | 0.00 | 0.05 | 0.00 | 84 | 1013.3 |
| 20260904125622 | 75 | 234 | 2.0 | 9.0 | 0.00 | 0.05 | 0.00 | 84 | 1013.4 |
| 20260904125122 | 75 | 308 | 1.0 | 10.0 | 0.00 | 0.05 | 0.00 | 85 | 1013.5 |
| 20260904124624 | 75 | 308 | 2.0 | 10.0 | 0.00 | 0.05 | 0.00 | 86 | 1013.4 |
| 20260904124121 | 74 | 250 | 2.0 | 8.0 | 0.00 | 0.05 | 0.00 | 86 | 1013.4 |
| 20260904123847 | 74 | 311 | 1.0 | 8.0 | 0.00 | 0.05 | 0.00 | 86 | 1013.5 |
| 20260904123356 | 74 | 277 | 1.0 | 6.0 | 0.00 | 0.05 | 0.00 | 87 | 1013.7 |
| 20260904122842 | 73 | 5 | 2.0 | 10.0 | 0.00 | 0.05 | 0.00 | 87 | 1013.8 |
| 20260904122127 | 73 | 323 | 3.0 | 10.0 | 0.00 | 0.05 | 0.00 | 87 | 1013.8 |
| 20260904121612 | 73 | 319 | 3.0 | 8.0 | 0.00 | 0.05 | 0.00 | 87 | 1013.7 |
| 20260904121112 | 73 | 262 | 3.0 | 11.0 | 0.00 | 0.05 | 0.00 | 88 | 1013.7 |
| 20260904120613 | 73 | 316 | 3.0 | 11.0 | 0.00 | 0.05 | 0.00 | 88 | 1013.6 |
| 20260904120126 | 72 | 319 | 2.0 | 8.0 | 0.00 | 0.05 | 0.00 | 88 | 1013.5 |
| 20260904115612 | 72 | 263 | 2.0 | 8.0 | 0.00 | 0.05 | 0.00 | 89 | 1013.5 |
| 20260904115113 | 72 | 0 | 2.0 | 8.0 | 0.00 | 0.05 | 0.00 | 90 | 1013.5 |
| 20260904114834 | 71 | 247 | 1.0 | 8.0 | 0.00 | 0.05 | 0.00 | 90 | 1013.5 |
| 20260904114111 | 71 | 242 | 1.0 | 5.0 | 0.00 | 0.05 | 0.00 | 90 | 1013.6 |
| 20260904113609 | 71 | 240 | 1.0 | 4.0 | 0.00 | 0.05 | 0.00 | 91 | 1013.5 |
| 20260904113326 | 71 | 240 | 1.0 | 3.0 | 0.00 | 0.05 | 0.00 | 91 | 1013.5 |
| 20260904112608 | 70 | 240 | 1.0 | 3.0 | 0.00 | 0.05 | 0.00 | 91 | 1013.4 |
| 20260904112106 | 70 | 236 | 1.0 | 3.0 | 0.00 | 0.05 | 0.00 | 91 | 1013.4 |
| 20260904111823 | 70 | 236 | 1.0 | 4.0 | 0.00 | 0.05 | 0.00 | 91 | 1013.4 |
| 20260904111332 | 70 | 236 | 1.0 | 4.0 | 0.00 | 0.05 | 0.00 | 92 | 1013.2 |
| 20260904110608 | 70 | 236 | 1.0 | 4.0 | 0.00 | 0.05 | 0.00 | 92 | 1013.2 |
| 20260904110327 | 69 | 236 | 0.0 | 4.0 | 0.00 | 0.05 | 0.00 | 92 | 1013.0 |
| 20260904105603 | 69 | 235 | 0.0 | 2.0 | 0.00 | 0.05 | 0.00 | 92 | 1012.9 |
| 20260904105321 | 69 | 233 | 0.0 | 0.0 | 0.00 | 0.06 | 0.00 | 92 | 1012.9 |
| 20260904104608 | 69 | 233 | 0.0 | 0.0 | 0.00 | 0.06 | 0.00 | 92 | 1012.8 |
| 20260904104101 | 69 | 233 | 0.0 | 0.0 | 0.00 | 0.07 | 0.00 | 92 | 1012.8 |
| 20260904103601 | 69 | 233 | 0.0 | 0.0 | 0.00 | 0.07 | 0.00 | 92 | 1012.8 |
| 20260904103102 | 69 | 233 | 0.0 | 0.0 | 0.00 | 0.07 | 0.00 | 92 | 1012.7 |
| 20260904102559 | 70 | 233 | 0.0 | 0.0 | 0.00 | 0.07 | 0.00 | 92 | 1012.7 |
| 20260904102059 | 70 | 233 | 0.0 | 0.0 | 0.00 | 0.08 | 0.00 | 92 | 1012.6 |
| 20260904101558 | 70 | 233 | 0.0 | 0.0 | 0.00 | 0.08 | 0.00 | 92 | 1012.6 |
| 20260904101059 | 70 | 233 | 0.0 | 0.0 | 0.00 | 0.08 | 0.00 | 92 | 1012.5 |
| 20260904100559 | 70 | 233 | 0.0 | 0.0 | 0.00 | 0.08 | 0.00 | 92 | 1012.4 |
| 20260904100332 | 70 | 233 | 0.0 | 0.0 | 0.00 | 0.08 | 0.00 | 91 | 1012.3 |
| 20260904095758 | 71 | 233 | 0.0 | 0.0 | 0.00 | 0.08 | 0.00 | 91 | 1012.5 |
| 20260904095644 | 70 | 233 | 0.0 | 0.0 | 0.00 | 0.08 | 0.00 | 91 | 1012.3 |
| 20260904094551 | 71 | 233 | 0.0 | 0.0 | 0.00 | 0.08 | 0.00 | 91 | 1012.5 |
| 20260904094053 | 71 | 233 | 0.0 | 0.0 | 0.00 | 0.08 | 0.00 | 91 | 1012.5 |
| 20260904093550 | 71 | 234 | 0.0 | 0.0 | 0.00 | 0.09 | 0.00 | 90 | 1012.5 |
| 20260904093050 | 71 | 234 | 0.0 | 0.0 | 0.00 | 0.21 | 0.00 | 90 | 1012.5 |
| 20260904092550 | 71 | 234 | 0.0 | 0.0 | 0.00 | 0.22 | 0.00 | 90 | 1012.6 |
| 20260904092045 | 72 | 233 | 0.0 | 0.0 | 0.00 | 0.22 | 0.00 | 90 | 1012.6 |
| 20260904091544 | 72 | 234 | 0.0 | 0.0 | 0.00 | 0.23 | 0.00 | 90 | 1012.7 |
| 20260904091041 | 72 | 233 | 0.0 | 0.0 | 0.00 | 0.23 | 0.00 | 90 | 1012.7 |
| 20260904090545 | 72 | 234 | 0.0 | 2.0 | 0.00 | 0.23 | 0.00 | 90 | 1012.8 |
| 20260904090057 | 72 | 234 | 0.0 | 2.0 | 0.00 | 0.23 | 0.00 | 90 | 1012.8 |
| 20260904085541 | 72 | 233 | 0.0 | 2.0 | 0.00 | 0.24 | 0.00 | 90 | 1012.8 |
| 20260904085039 | 72 | 233 | 0.0 | 2.0 | 0.00 | 0.30 | 0.00 | 90 | 1012.8 |
| 20260904084806 | 72 | 233 | 1.0 | 3.0 | 0.00 | 0.30 | 0.00 | 89 | 1012.7 |
| 20260904084037 | 72 | 234 | 2.0 | 5.0 | 0.00 | 0.30 | 0.00 | 89 | 1012.9 |
| 20260904083536 | 72 | 239 | 1.0 | 5.0 | 0.00 | 0.30 | 0.00 | 89 | 1013.0 |
| 20260904083037 | 73 | 252 | 1.0 | 3.0 | 0.00 | 0.30 | 0.00 | 89 | 1013.0 |
| 20260904082540 | 73 | 255 | 1.0 | 3.0 | 0.00 | 0.30 | 0.00 | 89 | 1012.9 |
| 20260904082038 | 72 | 255 | 0.0 | 2.0 | 0.00 | 0.33 | 0.00 | 89 | 1013.0 |
| 20260904081547 | 73 | 256 | 0.0 | 3.0 | 0.00 | 0.42 | 0.00 | 90 | 1013.0 |
| 20260904081036 | 73 | 256 | 0.0 | 3.0 | 0.00 | 0.48 | 0.00 | 90 | 1012.9 |
| 20260904080530 | 73 | 254 | 0.0 | 0.0 | 0.00 | 0.48 | 0.00 | 90 | 1013.0 |
| 20260904080250 | 73 | 254 | 0.0 | 2.0 | 0.00 | 0.48 | 0.00 | 90 | 1012.8 |
| 20260904075527 | 73 | 254 | 0.0 | 3.0 | 0.00 | 0.49 | 0.00 | 90 | 1012.8 |
| 20260904075249 | 73 | 254 | 0.0 | 3.0 | 0.00 | 0.49 | 0.00 | 91 | 1012.8 |
| 20260904074527 | 73 | 255 | 0.0 | 2.0 | 0.00 | 0.49 | 0.00 | 91 | 1012.8 |
| 20260904074029 | 73 | 255 | 1.0 | 5.0 | 0.00 | 0.49 | 0.00 | 91 | 1012.9 |
| 20260904073527 | 73 | 254 | 0.0 | 5.0 | 0.00 | 0.49 | 0.00 | 91 | 1013.0 |
| 20260904073022 | 73 | 298 | 0.0 | 2.0 | 0.00 | 0.49 | 0.00 | 91 | 1013.0 |
| 20260904072742 | 73 | 298 | 0.0 | 1.0 | 0.00 | 0.49 | 0.00 | 92 | 1012.9 |
| 20260904072011 | 72 | 298 | 1.0 | 4.0 | 0.00 | 0.49 | 0.00 | 92 | 1012.8 |
| 20260904071946 | 72 | 298 | 1.0 | 6.0 | 0.00 | 0.49 | 0.00 | 93 | 1012.8 |
| 20260904070957 | 72 | 265 | 1.0 | 6.0 | 0.00 | 0.49 | 0.00 | 93 | 1012.6 |
| 20260904070454 | 72 | 325 | 0.0 | 2.0 | 0.00 | 0.49 | 0.00 | 93 | 1012.5 |
| 20260904070218 | 72 | 325 | 0.0 | 0.0 | 0.00 | 0.49 | 0.00 | 93 | 1012.5 |
| 20260904065453 | 72 | 325 | 0.0 | 0.0 | 0.00 | 0.49 | 0.00 | 93 | 1012.3 |
| 20260904064952 | 72 | 325 | 0.0 | 2.0 | 0.00 | 0.49 | 0.00 | 93 | 1012.2 |
| 20260904064451 | 73 | 325 | 1.0 | 2.0 | 0.00 | 0.49 | 0.00 | 92 | 1012.0 |
| 20260904063951 | 73 | 325 | 0.0 | 2.0 | 0.00 | 0.49 | 0.00 | 92 | 1011.7 |
| 20260904063451 | 73 | 325 | 0.0 | 2.0 | 0.00 | 0.49 | 0.00 | 92 | 1011.6 |
| 20260904062948 | 73 | 325 | 0.0 | 2.0 | 0.00 | 0.49 | 0.00 | 92 | 1011.5 |
| 20260904062446 | 73 | 325 | 0.0 | 2.0 | 0.00 | 0.49 | 0.00 | 92 | 1011.3 |
| 20260904062221 | 73 | 325 | 0.0 | 2.0 | 0.00 | 0.49 | 0.00 | 92 | 1011.4 |
| 20260904061737 | 73 | 325 | 0.0 | 4.0 | 0.00 | 0.49 | 0.00 | 91 | 1011.4 |
| 20260904061454 | 73 | 325 | 0.0 | 2.0 | 0.00 | 0.49 | 0.00 | 91 | 1011.5 |
| 20260904060437 | 74 | 325 | 1.0 | 4.0 | 0.00 | 0.49 | 0.00 | 91 | 1011.5 |
| 20260904055942 | 74 | 325 | 0.0 | 3.0 | 0.00 | 0.49 | 0.00 | 91 | 1011.5 |
| 20260904055438 | 74 | 326 | 0.0 | 5.0 | 0.00 | 0.49 | 0.00 | 91 | 1011.5 |
| 20260904054940 | 74 | 326 | 1.0 | 5.0 | 0.00 | 0.49 | 0.00 | 91 | 1011.7 |
| 20260904054436 | 74 | 321 | 1.0 | 4.0 | 0.00 | 0.50 | 0.00 | 91 | 1011.8 |
| 20260904053935 | 74 | 325 | 1.0 | 4.0 | 0.00 | 0.52 | 0.00 | 92 | 1012.0 |
| 20260904053436 | 74 | 323 | 1.0 | 5.0 | 0.00 | 0.64 | 0.00 | 92 | 1012.2 |
| 20260904052935 | 74 | 321 | 1.0 | 5.0 | 0.00 | 0.95 | 0.00 | 92 | 1012.3 |
| 20260904052434 | 74 | 262 | 1.0 | 4.0 | 0.00 | 1.08 | 0.00 | 93 | 1012.5 |
| 20260904051929 | 74 | 317 | 1.0 | 6.0 | 0.00 | 1.08 | 0.00 | 93 | 1012.3 |
| 20260904051651 | 74 | 279 | 1.0 | 6.0 | 0.00 | 1.08 | 0.00 | 93 | 1012.3 |
| 20260904050931 | 75 | 249 | 0.0 | 0.0 | 0.00 | 1.08 | 0.00 | 93 | 1012.3 |
| 20260904050430 | 75 | 249 | 0.0 | 0.0 | 0.00 | 1.09 | 0.00 | 93 | 1012.1 |
| 20260904045929 | 75 | 249 | 0.0 | 0.0 | 0.00 | 1.22 | 0.00 | 93 | 1012.0 |
| 20260904045428 | 75 | 249 | 0.0 | 0.0 | 0.00 | 1.30 | 0.00 | 93 | 1012.0 |
| 20260904044923 | 75 | 249 | 0.0 | 0.0 | 0.00 | 1.30 | 0.00 | 93 | 1012.0 |
| 20260904044649 | 75 | 249 | 0.0 | 0.0 | 0.00 | 1.30 | 0.00 | 93 | 1011.9 |
| 20260904043918 | 75 | 249 | 0.0 | 0.0 | 0.00 | 1.30 | 0.00 | 93 | 1012.0 |
| 20260904043419 | 75 | 249 | 0.0 | 0.0 | 0.00 | 1.30 | 0.00 | 93 | 1012.1 |
| 20260904043145 | 75 | 249 | 0.0 | 0.0 | 0.00 | 1.30 | 0.00 | 93 | 1012.2 |
| 20260904042906 | 75 | 249 | 0.0 | 2.0 | 0.00 | 1.30 | 0.00 | 93 | 1012.3 |
| 20260904041919 | 75 | 249 | 0.0 | 2.0 | 0.00 | 1.30 | 0.00 | 93 | 1012.3 |
| 20260904041419 | 75 | 249 | 0.0 | 0.0 | 0.00 | 1.30 | 0.00 | 93 | 1012.5 |
| 20260904040916 | 75 | 249 | 0.0 | 0.0 | 0.02 | 1.30 | 0.00 | 93 | 1012.6 |
| 20260904040413 | 75 | 249 | 0.0 | 0.0 | 0.05 | 1.30 | 0.00 | 93 | 1012.7 |
| 20260904040143 | 75 | 249 | 0.0 | 0.0 | 0.05 | 1.30 | 1.30 | 93 | 1012.7 |
| 20260904035633 | 75 | 249 | 0.0 | 0.0 | 0.05 | 1.30 | 1.30 | 93 | 1012.8 |
| 20260904034913 | 75 | 249 | 0.0 | 0.0 | 0.05 | 1.30 | 1.30 | 93 | 1013.0 |
| 20260904034413 | 75 | 249 | 0.0 | 1.0 | 0.05 | 1.30 | 1.30 | 93 | 1013.3 |
| 20260904033915 | 75 | 249 | 0.0 | 2.0 | 0.05 | 1.30 | 1.30 | 93 | 1013.4 |
| 20260904033645 | 75 | 249 | 0.0 | 2.0 | 0.05 | 1.30 | 1.30 | 92 | 1013.4 |
| 20260904032915 | 75 | 249 | 0.0 | 2.0 | 0.05 | 1.30 | 1.30 | 92 | 1013.5 |
| 20260904032418 | 75 | 249 | 1.0 | 3.0 | 0.05 | 1.30 | 1.30 | 92 | 1013.4 |
| 20260904031916 | 75 | 249 | 1.0 | 3.0 | 0.05 | 1.30 | 1.30 | 92 | 1013.3 |
| 20260904031413 | 75 | 249 | 1.0 | 4.0 | 0.05 | 1.30 | 1.30 | 92 | 1013.4 |
| 20260904030913 | 76 | 248 | 1.0 | 4.0 | 0.03 | 1.28 | 1.29 | 92 | 1013.7 |
| 20260904030413 | 76 | 252 | 0.0 | 0.0 | 0.00 | 1.25 | 1.25 | 92 | 1013.6 |
| 20260904025913 | 76 | 252 | 0.0 | 0.0 | 0.00 | 1.25 | 1.25 | 92 | 1013.4 |
| 20260904025412 | 76 | 252 | 0.0 | 0.0 | 0.00 | 1.25 | 1.25 | 92 | 1013.4 |
| 20260904024914 | 76 | 252 | 0.0 | 0.0 | 0.00 | 1.25 | 1.25 | 92 | 1013.5 |
| 20260904024413 | 76 | 252 | 0.0 | 0.0 | 0.00 | 1.25 | 1.25 | 92 | 1013.5 |
| 20260904024137 | 75 | 252 | 0.0 | 0.0 | 0.00 | 1.25 | 1.25 | 92 | 1013.4 |
| 20260904023411 | 75 | 252 | 0.0 | 0.0 | 0.00 | 1.25 | 1.25 | 92 | 1013.5 |
| 20260904022917 | 75 | 252 | 0.0 | 0.0 | 0.00 | 1.25 | 1.25 | 92 | 1013.5 |
| 20260904022413 | 75 | 252 | 0.0 | 0.0 | 0.00 | 1.25 | 1.25 | 91 | 1013.5 |
| 20260904021912 | 75 | 252 | 0.0 | 0.0 | 0.00 | 1.25 | 1.25 | 91 | 1013.4 |
| 20260904021411 | 75 | 252 | 0.0 | 0.0 | 0.00 | 1.25 | 1.25 | 91 | 1013.4 |
| 20260904020913 | 76 | 252 | 0.0 | 0.0 | 0.00 | 1.25 | 1.25 | 91 | 1013.5 |
| 20260904020411 | 76 | 252 | 0.0 | 0.0 | 0.00 | 1.25 | 1.25 | 91 | 1013.3 |
| 20260904015914 | 76 | 252 | 0.0 | 0.0 | 0.00 | 1.25 | 1.25 | 91 | 1013.2 |
| 20260904015415 | 76 | 252 | 0.0 | 0.0 | 0.00 | 1.25 | 1.25 | 91 | 1013.2 |
| 20260904014913 | 76 | 252 | 0.0 | 1.0 | 0.00 | 1.25 | 1.25 | 91 | 1013.1 |
| 20260904014417 | 76 | 252 | 1.0 | 2.0 | 0.00 | 1.25 | 1.25 | 91 | 1013.1 |
| 20260904013910 | 76 | 252 | 0.0 | 2.0 | 0.00 | 1.25 | 1.25 | 91 | 1013.2 |
| 20260904013409 | 76 | 252 | 0.0 | 1.0 | 0.00 | 1.25 | 1.25 | 91 | 1013.2 |
| 20260904013139 | 76 | 252 | 0.0 | 1.0 | 0.00 | 1.25 | 1.25 | 91 | 1013.3 |
| 20260904012408 | 76 | 252 | 0.0 | 1.0 | 0.00 | 1.25 | 1.25 | 91 | 1013.4 |
| 20260904011908 | 76 | 252 | 0.0 | 0.0 | 0.00 | 1.25 | 1.25 | 91 | 1013.5 |
| 20260904011407 | 76 | 252 | 0.0 | 0.0 | 0.00 | 1.25 | 1.25 | 91 | 1013.5 |
| 20260904010906 | 76 | 252 | 0.0 | 0.0 | 0.00 | 1.25 | 1.25 | 91 | 1013.6 |
| 20260904010418 | 76 | 252 | 0.0 | 0.0 | 0.00 | 1.25 | 1.25 | 91 | 1013.7 |
| 20260904005907 | 76 | 252 | 0.0 | 0.0 | 0.00 | 1.25 | 1.25 | 91 | 1013.9 |
| 20260904005409 | 76 | 252 | 0.0 | 0.0 | 0.00 | 1.25 | 1.25 | 91 | 1014.0 |
| 20260904004905 | 76 | 252 | 0.0 | 0.0 | 0.00 | 1.25 | 1.25 | 91 | 1014.0 |
| 20260904004405 | 76 | 252 | 0.0 | 0.0 | 0.00 | 1.25 | 1.25 | 90 | 1013.9 |
| 20260904003906 | 76 | 252 | 0.0 | 1.0 | 0.00 | 1.25 | 1.25 | 90 | 1014.0 |
| 20260904003619 | 76 | 252 | 0.0 | 1.0 | 0.00 | 1.25 | 1.25 | 90 | 1013.9 |
| 20260904002853 | 76 | 252 | 0.0 | 0.0 | 0.00 | 1.25 | 1.25 | 90 | 1013.8 |
| 20260904002611 | 76 | 252 | 0.0 | 0.0 | 0.00 | 1.25 | 1.25 | 90 | 1013.8 |
| 20260904001842 | 77 | 252 | 0.0 | 0.0 | 0.00 | 1.25 | 1.25 | 90 | 1013.7 |
| 20260904001338 | 77 | 252 | 0.0 | 1.0 | 0.00 | 1.25 | 1.25 | 89 | 1013.8 |
| 20260904000833 | 77 | 252 | 0.0 | 1.0 | 0.00 | 1.25 | 1.25 | 89 | 1013.6 |
| 20260904000334 | 77 | 252 | 0.0 | 0.0 | 0.00 | 1.25 | 1.25 | 89 | 1013.7 |
| 20260903235831 | 77 | 252 | 0.0 | 0.0 | 0.00 | 1.25 | 1.25 | 88 | 1013.7 |
| 20260903235328 | 77 | 252 | 0.0 | 0.0 | 0.00 | 1.25 | 1.25 | 88 | 1013.5 |
| 20260903234828 | 78 | 252 | 0.0 | 0.0 | 0.00 | 1.25 | 1.25 | 88 | 1013.4 |
| 20260903234329 | 78 | 252 | 0.0 | 0.0 | 0.00 | 1.25 | 1.25 | 87 | 1013.2 |
| 20260903233827 | 78 | 252 | 0.0 | 0.0 | 0.00 | 1.25 | 1.25 | 86 | 1013.1 |
| 20260903233328 | 78 | 252 | 0.0 | 0.0 | 0.00 | 1.25 | 1.25 | 87 | 1013.2 |
| 20260903233056 | 79 | 252 | 0.0 | 0.0 | 0.00 | 1.25 | 1.25 | 86 | 1013.2 |
| 20260903232326 | 79 | 252 | 0.0 | 1.0 | 0.00 | 1.25 | 1.25 | 86 | 1013.2 |
| 20260903231825 | 80 | 252 | 0.0 | 1.0 | 0.00 | 1.25 | 1.25 | 84 | 1013.3 |
| 20260903231335 | 80 | 252 | 0.0 | 0.0 | 0.00 | 1.25 | 1.25 | 82 | 1013.5 |
| 20260903231327 | 80 | 252 | 0.0 | 0.0 | 0.00 | 1.25 | 1.25 | 83 | 1013.3 |
| 20260903230325 | 80 | 252 | 0.0 | 0.0 | 0.00 | 1.25 | 1.25 | 83 | 1013.4 |
| 20260903230315 | 81 | 252 | 0.0 | 0.0 | 0.00 | 1.25 | 1.25 | 82 | 1013.4 |
| 20260903225324 | 81 | 252 | 0.0 | 0.0 | 0.00 | 1.25 | 1.25 | 81 | 1013.2 |
| 20260903224825 | 82 | 252 | 0.0 | 1.0 | 0.00 | 1.25 | 1.25 | 81 | 1013.0 |
| 20260903224321 | 82 | 252 | 0.0 | 3.0 | 0.00 | 1.25 | 1.25 | 77 | 1013.0 |
| 20260903223822 | 83 | 252 | 1.0 | 3.0 | 0.00 | 1.25 | 1.25 | 76 | 1013.0 |
| 20260903223318 | 83 | 253 | 0.0 | 2.0 | 0.00 | 1.25 | 1.25 | 76 | 1013.0 |
| 20260903223036 | 84 | 253 | 1.0 | 3.0 | 0.00 | 1.25 | 1.25 | 73 | 1012.9 |
| 20260903222309 | 85 | 253 | 2.0 | 3.0 | 0.00 | 1.25 | 1.25 | 71 | 1012.8 |
| 20260903221810 | 85 | 254 | 2.0 | 4.0 | 0.00 | 1.25 | 1.25 | 71 | 1012.7 |
| 20260903221308 | 85 | 254 | 2.0 | 7.0 | 0.00 | 1.25 | 1.25 | 70 | 1012.8 |
| 20260903220807 | 85 | 253 | 3.0 | 7.0 | 0.00 | 1.25 | 1.25 | 71 | 1012.9 |
| 20260903220308 | 85 | 219 | 3.0 | 8.0 | 0.00 | 1.25 | 1.25 | 69 | 1012.9 |
| 20260903215804 | 86 | 259 | 3.0 | 8.0 | 0.00 | 1.25 | 1.25 | 69 | 1012.9 |
| 20260903215306 | 86 | 302 | 3.0 | 8.0 | 0.00 | 1.25 | 1.25 | 69 | 1012.9 |
| 20260903215032 | 86 | 212 | 3.0 | 8.0 | 0.00 | 1.25 | 1.25 | 69 | 1012.9 |
| 20260903214535 | 87 | 271 | 2.0 | 5.0 | 0.00 | 1.25 | 1.25 | 71 | 1012.8 |
| 20260903214033 | 87 | 246 | 1.0 | 5.0 | 0.00 | 1.25 | 1.25 | 71 | 1012.8 |
| 20260903213305 | 87 | 250 | 1.0 | 5.0 | 0.00 | 1.25 | 1.25 | 71 | 1012.6 |
| 20260903212806 | 86 | 250 | 1.0 | 4.0 | 0.00 | 1.25 | 1.25 | 70 | 1012.5 |
| 20260903212307 | 86 | 250 | 2.0 | 5.0 | 0.00 | 1.25 | 1.25 | 68 | 1012.5 |
| 20260903212258 | 87 | 250 | 1.0 | 5.0 | 0.00 | 1.25 | 1.25 | 68 | 1012.5 |
| 20260903211308 | 87 | 250 | 2.0 | 4.0 | 0.00 | 1.25 | 1.25 | 68 | 1012.5 |
| 20260903210810 | 87 | 250 | 2.0 | 7.0 | 0.00 | 1.25 | 1.25 | 67 | 1012.4 |
| 20260903210307 | 87 | 250 | 2.0 | 7.0 | 0.00 | 1.25 | 1.25 | 68 | 1012.5 |
| 20260903205805 | 87 | 246 | 2.0 | 9.0 | 0.00 | 1.25 | 1.25 | 68 | 1012.6 |
| 20260903205746 | 87 | 246 | 3.0 | 9.0 | 0.00 | 1.25 | 1.25 | 66 | 1012.6 |
| 20260903204803 | 87 | 220 | 3.0 | 7.0 | 0.00 | 1.25 | 1.25 | 66 | 1012.6 |
| 20260903204516 | 87 | 271 | 2.0 | 7.0 | 0.00 | 1.25 | 1.25 | 66 | 1012.6 |
| 20260903204016 | 87 | 216 | 2.0 | 8.0 | 0.00 | 1.25 | 1.25 | 66 | 1012.7 |
| 20260903203257 | 87 | 216 | 3.0 | 8.0 | 0.00 | 1.25 | 1.25 | 67 | 1012.7 |
| 20260903202810 | 87 | 196 | 2.0 | 7.0 | 0.00 | 1.25 | 1.25 | 67 | 1012.9 |
| 20260903202254 | 87 | 250 | 3.0 | 9.0 | 0.00 | 1.25 | 1.25 | 68 | 1012.9 |
| 20260903201755 | 87 | 217 | 3.0 | 9.0 | 0.00 | 1.25 | 1.25 | 67 | 1013.0 |
| 20260903201515 | 87 | 207 | 2.0 | 8.0 | 0.00 | 1.25 | 1.25 | 67 | 1013.0 |